639  
ASUS41 KAKQ 240116  
RWRAKQ  
 
REGIONAL WEATHER ROUNDUP  
NATIONAL WEATHER SERVICE WAKEFIELD VA  
900 PM EDT WED SEP 23 2020  
 
NOTE: "FAIR" INDICATES FEW OR NO CLOUDS BELOW 12,000 FEET WITH NO  
SIGNIFICANT WEATHER AND/OR S TO VISIBILITY
. * = DENOTES  
STATION MAY NOT REPORT PRECIPITATION (E.G., RAIN,SNOW,ETC.),
 
THUNDER OR FOG.  
 
VAZ042-051-052>054-056-240200-  
NORTHERN VIRGINIA  
 
CITY SKY/WX TMP DP RH WIND PRES REMARKS
 
WASH NATIONAL MOCLDY 70 52 52 SW8 29.98R  
DULLES MOCLDY 67 51 56 S7 29.98R  
FORT BELVOIR PTCLDY 60 56 86 CALM 29.98R  
QUANTICO PTCLDY 64 57 78 CALM 30.00R  
FREDERICKSBRG* NOT AVBL  
STAFFORD* PTCLDY 59 59 100 CALM 30.04R  
WARRENTON PTCLDY 59 54 84 CALM 30.00R  
CULPEPER* NOT AVBL  
MANASSAS* PTCLDY 61 55 81 CALM 30.00R  
LEESBURG* PTCLDY 66 55 68 SW6 30.00R  
WINCHESTER MOCLDY 61 52 72 W3 29.99R  
FRONT ROYAL* FAIR 63 54 72 S6 30.01R  
LURAY* FAIR 61 55 82 CALM 30.03R  

 
 
VAZ048-049-060>072-079>083-240200-  
CENTRAL AND SOUTH CENTRAL VIRGINIA  
 
CITY SKY/WX TMP DP RH WIND PRES REMARKS
 
RICHMOND MOCLDY 66 55 67 SW6 30.01R  
CHESTERFIELD* FAIR 62 56 80 CALM 30.02R  
PETERSBURG* PTCLDY 56 53 91 CALM 30.03R  
HANOVER PTCLDY 61 55 81 SW3 30.03R  
TAPPAHANNOCK* PTCLDY 58 58 100 CALM 30.01R  
QUINTON* FAIR 62 58 87 CALM 30.01R  
CHARLOTTSVILLE MOCLDY 65 54 67 CALM 30.02R  
GORDONSVILLE* FAIR 57 57 100 CALM 30.01R  
ORANGE* PTCLDY 59 54 82 SW3 30.02R  
LOUISA* PTCLDY 60 55 83 SW5 30.06R  
BUMPASS* NOT AVBL  
FARMVILLE* MOCLDY 60 58 93 CALM 30.03R  
CREWE* FAIR N/A N/A N/A CALM 30.03R  
FORT PICKETT* FAIR 59 59 100 SW3 30.04R  
CHASE CITY* FAIR 60 57 91 CALM 30.05R  
CLARKSVILLE* FAIR 59 59 100 CALM 30.04S  
SOUTH HILL* MOCLDY 58 56 93 CALM 30.10R  
LAWRENCEVILLE* NOT AVBL  
EMPORIA* MOCLDY 59 58 96 CALM 30.04S  

 
 
VAZ088>098-240200-  
SOUTHEAST VIRGINIA  
 
CITY SKY/WX TMP DP RH WIND PRES REMARKS
 
NORFOLK PTCLDY 66 53 63 CALM 30.01R  
VIRGINIA BEACH MOCLDY 65 54 67 CALM 30.01R  
NORFOLK NAVAL MOCLDY 65 54 67 SW5 30.02S  
WEST POINT* PTCLDY 59 57 91 CALM 30.03R  
SALUDA* FAIR 62 56 80 CALM 30.00S  
NEWPORT NEWS MOCLDY 66 56 70 SW6 30.01R  
LANGLEY AFB PTCLDY 62 58 88 S5 30.01S  
FORT EUSTIS PTCLDY 67 58 72 W5 29.99S  
WILLIAMSBURG* PTCLDY 66 57 72 CALM 30.02S  
HR EXEC AP* FAIR 56 56 100 CALM 30.03R  
FRANKLIN* PTCLDY 58 57 98 CALM 30.03S  
US460-WAKEFLD PTCLDY 60 58 92 CALM 30.02S  

 
 
VAZ020-022-025-037-045-240200-  
WEST CENTRAL AND SOUTHWEST VIRGINIA  
 
CITY SKY/WX TMP DP RH WIND PRES REMARKS
 
STAUNTON* MOCLDY 58 53 81 CALM 30.07R  
WAYNESBORO* FAIR 58 52 79 CALM 30.05R  
HOT SPRINGS VA MOCLDY 61 51 67 NW9 30.14S  
LYNCHBURG MOCLDY 60 55 83 SW3 30.05R  
DANVILLE MOCLDY 59 56 89 SW3 30.06R  
SOUTH BOSTON* FAIR 59 58 95 CALM 30.05R  
MARTINSVILLE MOCLDY 58 58 100 CALM 30.09S  
ROANOKE CLOUDY 64 56 75 CALM 30.08R  
BLACKSBURG CLOUDY 59 57 95 CALM 30.13R  
DUBLIN* NOT AVBL  
MARION* CLOUDY 60 57 91 W6 30.15S  
HILLSVILLE* CLOUDY 58 57 96 SW3 30.12R  
RICHLANDS* FAIR 57 53 85 CALM 30.14S  
WISE* CLOUDY 59 52 77 CALM 30.14S  
ABINGDON* CLOUDY 60 55 83 CALM 30.11S  

 
 
MDZ021>025-VAZ099-100-240200-  
SOUTHERN MARYLAND AND THE DELMARVA PENINSULA  
 
CITY SKY/WX TMP DP RH WIND PRES REMARKS
 
PATUXENT RIVER MOCLDY 66 55 67 SW9 29.98R  
BAY BRIDGE APT PTCLDY 70 57 64 SW7 29.96R  
LEONARDTOWN MOCLDY 64 55 72 W3 30.01R  
DOVER CLEAR 65 56 71 SW8 29.95R  
GEORGETOWN PTCLDY 65 57 75 SW6 29.97R  
EASTON CLEAR 66 57 72 S3 30.00R  
CAMBRIDGE CLEAR 61 55 82 CALM 29.98R  
SALISBURY PTCLDY 62 55 77 SW3 29.98R  
TANGIER NOT AVBL  
OCEAN CITY PTCLDY 63 55 75 SW6 29.99R  
WALLOPS ISLAND MOCLDY 64 56 75 SW6 30.00R  
ACCOMACK* MOCLDY 60 55 84 SW3 30.00R  

 
 
NCZ012>017-030>032-240200-  
NORTH CENTRAL AND EASTERN NORTH CAROLINA  
 
CITY SKY/WX TMP DP RH WIND PRES REMARKS
 
ROANOKE RAPIDS FAIR 57 57 100 CALM 30.04R  
RALEIGH CLOUDY 61 57 87 CALM 30.06R  
ELIZABETH CITY PTCLDY 64 58 80 SW6 30.03R  
AHOSKIE* MOCLDY 59 59 100 CALM 30.04S  
EDENTON* PTCLDY 64 62 93 CALM 30.05R  
CURRITUCK* PTCLDY 63 58 85 CALM 30.03R  
KILL DEVIL HLS PTCLDY 65 55 69 CALM 30.03R  
MANTEO PTCLDY 66 55 69 CALM 30.04R  
CAPE HATTERAS PTCLDY 68 58 70 W7 30.05R  
TARBORO* FAIR 60 60 97 CALM 30.04R  
GOLDSBORO MOCLDY 65 57 76 CALM 30.04R  
WASHINGTON CLOUDY 62 58 87 CALM 30.05R  
GREENVILLE CLOUDY 61 59 94 CALM 30.06R  
NEW BERN CLOUDY 62 60 93 CALM 30.05S  
WILMINGTON PTCLDY 64 55 72 S3 30.05R  

 
 
VAZ048-240200-  
ELSEWHERE  
 
CITY SKY/WX TMP DP RH WIND PRES REMARKS
 
HARRISBURG PA PTCLDY 66 55 67 CALM 29.93R  
BALTIMORE MOCLDY 70 53 54 SW6 29.96R  
ANNAPOLIS PTCLDY 70 54 56 W5 29.96R  
ANDREWS AFB PTCLDY 66 53 62 SW6 29.98R  
PHILADELPHIA PTCLDY 71 56 58 SW8 29.93R  
GREENSBORO CLOUDY 64 54 69 CALM 30.06R  
ROCKY MOUNT MOCLDY 60 59 96 CALM 30.05R  

 
 
VAZ100-240200-  
MARINE  
 
STATION/POSITION TIME TEMP WIND PRES WAVE SWELL
 
AIR SEA DIR/SP/G HT/PER HT/PER  
(UTC) (F) (DEG/KT/KT) (MB) (FT/S) (FT/S)  
CAPE MAY NJ 0030 69 66 220/ 7/ 9 N/A  
LEWES DE 0030 68 67 240/ 7/ 11 N/A  
15NM E FENWICK I 0050 N/A 3/13  
OCEAN-CITY-INLET 0030 67 68 250/ 6/ 8 N/A  
44089 WALLOPS IS 0056 69 N/A 3/15 2/15  
WACHAPREAGUE VA 0030 64 67 270/ 3/ 4 N/A  
THOMAS POINT MD 0100 70 71 230/ 10/ 11 1015.5R  
GOOSES REEF MD 0100 71 71 260/ 10/ 10 N/A  
COVE POINT MD 0030 230/ 7/ 9 N/A  
SOLOMONS ISLAND 0030 69 71 250/ 8/ 10 N/A  
BISHOPS HEAD MD 0030 70 68 250/ 5/ 5 N/A  
PINEY POINT MD 0030 270/ 7/ 9 N/A  
CAMBRIDGE MD 0030 69 69 230/ 6/ 9 N/A  
LEWISETTA VA 0030 67 66 230/ 5/ 6 N/A  
RAPPAHANNOCK LGT 0030 240/ 10/ 12 N/A  
STINGRAY PT 0100 69 70 230/ 8/ 10 1018.2  
YORK RVR RNG VA 0030 70 270/ 7/ 8 N/A  
YORKTOWN VA 0030 68 70 250/ 8/ 10 N/A  
DOMINION TERM VA 0030 69 260/ 6/ 8 N/A  
KIPTOPEKE VA 0030 67 250/ 5/ 6 N/A  
CAPE HENRY VA 0030 70 240/ 6/ 7 N/A  
WILLOUBY STN VA 0030 69 230/ 8/ 9 N/A  
S CRANEY ISL VA 0030 68 240/ 3/ 5 N/A  
64NM E OF VA BCH 0050 69 69 250/ 8/ 10 1016.4R 5/11 5/11  
DUCK PIER NC 0030 69 260/ 7/ 9 N/A  
44100 DUCK FRF 0056 72 N/A 5/15 3/15  
44056 DUCK FRF 0056 71 N/A 5/14 3/14  
OREGON INLET NC 0030 69 68 240/ 7/ 8 N/A  
HATTERAS NC 0030 69 71 230/ 8/ 12 N/A  
DIAMOND SHLS NC 0050 71 72 250/ 12/ 17 1016.9R 8/16 8/16  
CAPE LOOKOUT NC 0100 70 210/ 5/ 7 1017.7F  

 
 
 
CLICK HERE TO GO TO PREVIOUS BULLETINS.

The Nexlab VA Page
The Nexlab NC Page
The Nexlab MD Page Main Text Page